Location: Barcelona
(41.3830°N, 2.1830°E)
Time: 06:45:02
(UTC+02:00)

ISS - Pass Details

Date: 19 March 2018
Orbit: 403 x 408 km, 51.6° (Epoch: 21 September)

Event Time Altitude Azimuth Distance (km) Brightness Sun altitude
Exits shadow 04:21:52 16° 87° (E) 1,193 -0.8 -28.8°
Drops below altitude 10° 04:22:40 10° 94° (E) 1,483 -0.3 -28.7°
Sets 04:24:52 0° 104° (ESE) 2,338 0.7 -28.3°
